www.pogodaiklimat.ru

Погода и климат >> Архив погоды >> Норвегия >> Sklinna Fyr


ПОГОДА в Sklinna Fyr

  • Прогноз погоды в Sklinna Fyr
  • Монитор погоды в Sklinna Fyr
  • Климат города

АРХИВ ПОГОДЫ в Sklinna Fyr

Время (UTC), дата Ветер
(напр.,м/с)
 
Видим.   Явления Облачность Т
(С)
Тd
(С)
f
(%)
Тe
(С)
Тes
(С)
Комфортность P
(гПа)
Po
(гПа)
Тmin
(С)
Tmax
(С)
R
(мм)
R24
(мм)
S
(см)
17 18.05 ЮЗ 2
{3}
н/о н/о +9.4 +3.6 67 +8 +8 1022.3 1020.4
16 18.05 З 2
{5}
н/о н/о +9.5 +3.9 68 +8 +8 1022.7 1020.8
18 18.05 ЮЗ 2
{6}
н/о н/о +9.0 +3.6 69 +7 +7 1021.8 1019.9 +7.6 +10.2
19 18.05 ЮВ 1
{2}
н/о н/о +8.3 +3.2 70 +8 +8 1021.6 1019.7
20 18.05 ЮВ 4
{4}
н/о н/о +7.3 +3.7 78 +4 +4 1021.1 1019.2
21 18.05 ЮВ 4
{5}
н/о н/о +7.1 +4.3 82 +4 +4 1020.7 1018.8
23 18.05 Ю 5
{5}
н/о н/о +7.5 +5.2 85 +4 +4 1020.1 1018.2
22 18.05 Ю 4
{5}
н/о н/о +7.5 +4.8 83 +4 +4 1020.5 1018.6
00 19.05 Ю 6
{6}
н/о н/о +7.8 +5.4 85 +4 +4 1019.8 1017.9
01 19.05 ЮЗ 6
{7}
н/о н/о +8.4 +5.9 84 +4 +4 1019.8 1017.9
02 19.05 ЮЗ 7
{10}
н/о н/о +8.6 +4.4 75 +4 +4 1019.9 1018.0
03 19.05 ЮЗ 7
{10}
н/о н/о +8.5 +5.4 81 +4 +4 1019.8 1017.9
05 19.05 ЮЗ 10 н/о н/о +8.8 +6.4 85 +4 +4 1019.7 1017.8
04 19.05 ЮЗ 9 н/о н/о +8.6 +5.7 82 +4 +4 1019.8 1017.9
06 19.05 ЮЗ 10
{12}
н/о н/о +8.7 +6.8 88 +4 +4 1019.9 1018.0 +7.1
07 19.05 ЮЗ 10 н/о н/о +8.7 +7.2 90 +4 +4 1020.0 1018.1
08 19.05 ЮЗ 9 н/о н/о +8.5 +7.6 94 +4 +4 1020.2 1018.3
09 19.05 ЮЗ 10 н/о н/о +8.6 +7.8 95 +3 +3 1020.4 1018.5
11 19.05 З 4 н/о н/о +7.8 +7.2 96 +4 +4 1021.2 1019.3
10 19.05 З 6 н/о н/о +7.8 +7.1 95 +3 +3 1021.0 1019.1
12 19.05 З 5
{13}
н/о н/о +7.6 +6.9 95 +4 +4 1021.5 1019.6
13 19.05 З 3 н/о н/о +7.6 +6.4 92 +5 +5 1021.5 1019.6
14 19.05 ЮЗ 2 н/о н/о +7.8 +6.1 89 +6 +6 1021.7 1019.8
15 19.05 Ю 2
{3}
н/о н/о +7.8 +5.9 88 +6 +6 1021.9 1020.0
17 19.05 ЮВ 5
{5}
н/о н/о +7.7 +6.6 93 +4 +4 1021.0 1019.1
16 19.05 Ю 2
{3}
н/о н/о +8.0 +6.6 91 +6 +6 1021.6 1019.7
18 19.05 ЮЗ 8
{9}
н/о н/о +8.7 +8.0 95 +4 +4 1020.6 1018.7 +7.4 +8.8
19 19.05 Ю 8
{9}
н/о н/о +8.7 +7.8 94 +4 +4 1020.2 1018.3
20 19.05 Ю 7
{8}
н/о н/о +8.7 +7.6 93 +4 +4 1020.0 1018.1
21 19.05 Ю 7
{9}
н/о н/о +8.8 +7.6 92 +4 +4 1019.8 1017.9
23 19.05 Ю 9
{10}
н/о н/о +9.1 +7.1 87 +4 +4 1019.2 1017.3
22 19.05 Ю 7
{9}
н/о н/о +8.8 +7.3 90 +5 +5 1019.3 1017.4
00 20.05 Ю 7
{10}
н/о н/о +9.0 +7.5 90 +5 +5 1018.8 1016.9
01 20.05 Ю 9
{10}
н/о н/о +9.1 +7.1 87 +4 +4 1018.3 1016.4
02 20.05 Ю 9
{10}
н/о н/о +9.1 +6.4 83 +4 +4 1017.8 1015.9
03 20.05 Ю 9
{9}
н/о н/о +9.1 +6.7 85 +4 +4 1017.4 1015.5
05 20.05 Ю 9
{10}
н/о н/о +10.0 +6.9 81 +6 +6 1016.6 1014.7
04 20.05 Ю 9
{11}
н/о н/о +9.5 +6.6 82 +5 +5 1017.0 1015.1
06 20.05 Ю 10
{12}
н/о н/о +10.7 +6.8 77 +7 +7 1016.3 1014.4 +8.7 +10.7
07 20.05 Ю 11
{13}
н/о н/о +11.3 +7.0 75 +7 +7 1016.0 1014.1
08 20.05 Ю 10
{12}
н/о н/о +12.2 +7.7 74 +9 +9 1016.0 1014.1
09 20.05 Ю 10
{11}
н/о н/о +13.1 +6.9 66 +10 +10 1016.4 1014.5
11 20.05 Ю 10
{12}
н/о н/о +12.2 +6.3 67 +9 +9 1016.4 1014.5
10 20.05 Ю 10
{12}
н/о н/о +12.0 +6.3 68 +8 +8 1016.6 1014.7
12 20.05 ЮЗ 12
{16}
н/о н/о +12.5 +5.7 63 +9 +9 1017.1 1015.2
13 20.05 ЮЗ 9 н/о н/о +12.5 +5.0 60 +9 +9 1017.2 1015.3
14 20.05 ЮЗ 10
{16}
н/о н/о +11.6 +5.3 65 +8 +8 1017.6 1015.7
15 20.05 ЮЗ 12
{14}
н/о н/о +10.7 +6.5 75 +6 +6 1017.9 1016.0
17 20.05 ЮЗ 9
{13}
н/о н/о +10.2 +7.1 81 +6 +6 1017.6 1015.7
16 20.05 ЮЗ 9
{13}
н/о н/о +10.8 +6.6 75 +7 +7 1017.7 1015.8
18 20.05 Ю 10
{17}
н/о н/о +10.2 +7.3 82 +6 +6 1017.6 1015.7 +9.9 +13.8
19 20.05 ЮЗ 9
{14}
н/о н/о +10.4 +6.9 79 +6 +6 1018.0 1016.1
20 20.05 ЮЗ 10
{12}
н/о н/о +10.4 +7.1 80 +6 +6 1018.0 1016.1
21 20.05 Ю 10
{14}
н/о н/о +10.6 +6.8 77 +6 +6 1018.2 1016.3
23 20.05 Ю 12
{15}
н/о н/о +10.9 +6.7 75 +6 +6 1018.1 1016.2
22 20.05 Ю 12
{17}
н/о н/о +11.0 +6.4 73 +7 +7 1018.2 1016.3
00 21.05 ЮЗ 10
{17}
н/о н/о +10.6 +6.9 78 +6 +6 1018.5 1016.6
01 21.05 ЮЗ 10
{12}
н/о н/о +10.3 +7.0 80 +6 +6 1018.8 1016.9
02 21.05 ЮЗ 9
{12}
н/о н/о +10.2 +7.1 81 +6 +6 1019.2 1017.3
03 21.05 ЮЗ 10
{14}
н/о н/о +10.4 +7.1 80 +6 +6 1019.6 1017.7
05 21.05 ЮЗ 10 н/о н/о +9.9 +7.7 86 +5 +5 1020.7 1018.8
04 21.05 ЮЗ 13 н/о н/о +10.6 +7.3 80 +6 +6 1020.0 1018.1
06 21.05 ЮЗ 12
{19}
н/о н/о +9.6 +8.0 90 +4 +4 1020.8 1018.9 +9.5
07 21.05 ЮЗ 11 н/о н/о +9.3 +8.1 92 +4 +4 1021.4 1019.5
08 21.05 Ю 10 н/о н/о +9.3 +8.2 93 +4 +4 1021.8 1019.9
09 21.05 Ю 10 н/о н/о +9.4 +8.2 92 +5 +5 1022.5 1020.6
11 21.05 Ю 8 н/о н/о +9.5 +8.3 92 +5 +5 1023.0 1021.1
10 21.05 Ю 9 н/о н/о +9.3 +8.2 93 +5 +5 1022.7 1020.8
12 21.05 Ю 9
{14}
н/о н/о +9.7 +8.1 90 +5 +5 1023.5 1021.6
13 21.05 Ю 6
{10}
н/о н/о +10.1 +8.4 89 +7 +7 1023.6 1021.7
14 21.05 Ю 6
{7}
н/о н/о +10.8 +8.9 88 +8 +8 1023.8 1021.9
15 21.05 Ю 5
{7}
н/о н/о +12.1 +9.3 83 +10 +10 1023.5 1021.6
17 21.05 Ю 7
{8}
н/о н/о +12.3 +8.2 76 +9 +9 1022.8 1020.9
16 21.05 Ю 7
{8}
н/о н/о +12.8 +8.7 76 +10 +10 1023.0 1021.1
18 21.05 Ю 6
{10}
н/о н/о +12.3 +8.2 76 +10 +10 1022.4 1020.5 +9.2 +12.8
19 21.05 Ю 8
{9}
н/о н/о +11.4 +7.9 79 +8 +8 1022.4 1020.5
20 21.05 Ю 8
{10}
н/о н/о +10.6 +7.7 82 +7 +7 1022.5 1020.6
21 21.05 Ю 7 н/о н/о +9.7 +7.3 85 +6 +6 1022.4 1020.5
23 21.05 Ю 6
{6}
н/о н/о +9.1 +7.2 88 +5 +5 1021.7 1019.8
22 21.05 Ю 6
{7}
н/о н/о +9.3 +7.3 87 +6 +6 1022.1 1020.2
00 22.05 Ю 4 н/о н/о +9.4 +7.2 86 +6 +6 1021.7 1019.8
01 22.05 Ю 5
{6}
н/о н/о +8.9 +7.0 88 +5 +5 1021.6 1019.7
02 22.05 Ю 5
{6}
н/о н/о +9.5 +7.1 85 +6 +6 1021.4 1019.5
03 22.05 СЗ 3
{6}
н/о н/о +9.3 +7.3 87 +7 +7 1021.5 1019.6
05 22.05 СЗ 5 н/о н/о +8.1 +7.3 95 +4 +4 1022.5 1020.6
04 22.05 СЗ 7 н/о н/о +7.8 +6.9 94 +3 +3 1022.0 1020.1
06 22.05 СЗ 2
{8}
н/о н/о +9.0 +7.8 92 +7 +7 1023.0 1021.1 +7.7
07 22.05 З 3
{4}
н/о н/о +9.0 +7.5 90 +6 +6 1023.6 1021.7
08 22.05 С 10
{12}
н/о н/о +7.4 +5.9 90 +2 +2 1024.2 1022.3
09 22.05 С 8
{13}
н/о н/о +7.8 +4.9 82 +3 +3 1024.6 1022.7
11 22.05 С 9
{11}
н/о н/о +7.7 +4.1 78 +3 +3 1025.7 1023.8
10 22.05 С 8
{10}
н/о н/о +7.9 +5.0 82 +3 +3 1025.0 1023.1
12 22.05 С 8
{13}
н/о н/о +8.7 +4.5 75 +4 +4 1026.3 1024.4
13 22.05 С 7
{9}
н/о н/о +8.9 +4.7 75 +5 +5 1026.9 1025.0
14 22.05 С 7
{9}
н/о н/о +8.8 +4.4 74 +5 +5 1027.1 1025.2
15 22.05 С 6
{9}
н/о н/о +9.1 +4.1 71 +6 +6 1027.2 1025.3
17 22.05 С 6
{8}
н/о н/о +9.1 +4.7 74 +5 +5 1027.3 1025.4
16 22.05 С 6
{8}
н/о н/о +9.1 +4.5 73 +5 +5 1027.4 1025.5
18 22.05 С 5
{9}
н/о н/о +8.9 +4.1 72 +6 +6 1027.4 1025.5 +7.4 +9.3
19 22.05 С 6
{7}
н/о н/о +8.4 +4.2 75 +5 +5 1027.6 1025.7
20 22.05 С 5
{6}
н/о н/о +8.2 +4.2 76 +5 +5 1027.7 1025.8
21 22.05 С 5
{7}
н/о н/о +7.6 +4.2 79 +4 +4 1027.7 1025.8
23 22.05 С 4
{6}
н/о н/о +7.2 +3.8 79 +4 +4 1028.2 1026.3
22 22.05 С 5
{6}
н/о н/о +7.4 +3.5 76 +4 +4 1028.0 1026.1
00 23.05 С 5
{7}
н/о н/о +7.3 +3.7 78 +3 +3 1028.5 1026.6
01 23.05 С 5
{6}
н/о н/о +7.2 +2.7 73 +3 +3 1028.7 1026.8
02 23.05
{6}
н/о н/о +6.9 +1.8 70 1028.8 1026.9
03 23.05 С 3
{4}
н/о н/о +6.9 +2.4 73 +4 +4 1028.9 1027.0
05 23.05 С 3 н/о н/о +7.4 +3.6 77 +5 +5 1029.5 1027.6
04 23.05 С 3 н/о н/о +7.0 +2.7 74 +4 +4 1029.2 1027.3
06 23.05 СВ 4
{6}
н/о н/о +7.7 +3.4 74 +4 +4 1029.6 1027.7 +6.8
07 23.05 СВ 4 н/о н/о +8.4 +3.3 70 +5 +5 1029.7 1027.8
08 23.05 СВ 4 н/о н/о +8.6 +3.5 70 +6 +6 1030.0 1028.1
09 23.05 СВ 4 н/о н/о +8.9 +4.5 74 +6 +6 1030.1 1028.2
11 23.05 С 4
{5}
н/о н/о +9.2 +3.6 68 +6 +6 1030.6 1028.7
10 23.05 СВ 3
{5}
н/о н/о +9.4 +3.8 68 +7 +7 1030.4 1028.5
12 23.05 С 5
{6}
н/о н/о +9.1 +3.3 67 +6 +6 1030.7 1028.8
13 23.05 С 7
{8}
н/о н/о +9.0 +3.0 66 +5 +5 1030.8 1028.9
14 23.05 С 6
{9}
н/о н/о +8.9 +2.7 65 +5 +5 1030.7 1028.8
15 23.05 С 6
{8}
н/о н/о +9.1 +3.3 67 +6 +6 1030.9 1029.0
17 23.05 С 8
{9}
н/о н/о +8.4 +3.5 71 +4 +4 1030.7 1028.8
16 23.05 СВ 5
{8}
н/о н/о +8.9 +3.5 69 +6 +6 1030.6 1028.7
18 23.05 СВ 6
{9}
н/о н/о +8.3 +3.2 70 +4 +4 1030.0 1028.1 +7.7 +9.4
19 23.05 СВ 5
{8}
н/о н/о +8.2 +4.1 75 +5 +5 1030.0 1028.1
20 23.05 СВ 5
{7}
н/о н/о +8.0 +4.0 76 +4 +4 1029.9 1028.0
21 23.05 С 4
{5}
н/о н/о +7.7 +4.5 80 +4 +4 1030.1 1028.2
23 23.05 В 5
{5}
н/о н/о +7.1 +4.4 83 +3 +3 1029.5 1027.6
22 23.05 С 3
{5}
н/о н/о +7.6 +4.7 82 +5 +5 1029.9 1028.0
00 24.05 СВ 5
{8}
н/о н/о +7.5 +4.5 81 +4 +4 1029.4 1027.5
01 24.05 В 5
{6}
н/о н/о +7.9 +5.7 86 +4 +4 1029.1 1027.2
02 24.05 В 4
{5}
н/о н/о +8.0 +6.1 88 +5 +5 1028.7 1026.8
03 24.05 В 5
{6}
н/о н/о +8.3 +6.4 88 +5 +5 1028.2 1026.3
05 24.05 В 4 н/о н/о +9.4 +7.2 86 +6 +6 1027.5 1025.6
04 24.05 В 4
{5}
н/о н/о +8.8 +7.1 89 +6 +6 1028.0 1026.1
06 24.05 В 3
{6}
н/о н/о +9.9 +7.0 82 +8 +8 1027.2 1025.3 +7.1
07 24.05 СВ 3 н/о н/о +10.8 +6.8 76 +9 +9 1027.3 1025.4
08 24.05 В 3 н/о н/о +11.5 +6.0 69 +10 +10 1027.3 1025.4
09 24.05 В 3 н/о н/о +12.8 +5.0 59 +12 +12 1027.2 1025.3
11 24.05
{3}
н/о н/о +14.6 +0.5 38 1027.3 1025.4
10 24.05 н/о н/о +13.2 +7.0 66 1027.4 1025.5
12 24.05 Ю 2
{4}
н/о н/о +14.4 +4.7 52 +14 +14 1027.4 1025.5
13 24.05 ЮЗ 8
{9}
н/о н/о +11.0 +7.7 80 +7 +7 1027.4 1025.5
14 24.05
{10}
н/о н/о +9.5 +7.8 89 1027.5 1025.6
15 24.05 ЮЗ 9
{10}
н/о н/о +10.4 +8.0 85 +6 +6 1027.5 1025.6
17 24.05 ЮЗ 7
{9}
н/о н/о +10.9 +8.7 86 +7 +7 1027.2 1025.3
16 24.05 ЮЗ 8
{11}
н/о н/о +10.4 +8.5 88 +6 +6 1027.3 1025.4
18 24.05 ЮЗ 8
{11}
н/о н/о +9.2 +7.2 87 +5 +5 1027.4 1025.5 +9.0 +14.8
19 24.05
{10}
н/о н/о +8.9 +7.0 88 1027.4 1025.5
20 24.05 н/о н/о +8.9 +6.9 87 1027.4 1025.5
21 24.05 н/о н/о +8.9 +7.0 88 1027.3 1025.4
23 24.05 н/о н/о +8.7 +6.7 87 1027.3 1025.4
22 24.05 н/о н/о +9.0 +7.1 88 1027.4 1025.5
00 25.05 н/о н/о +8.6 +6.7 88 1027.6 1025.7
01 25.05
{12}
н/о н/о +8.4 +6.9 90 1027.6 1025.7
02 25.05 ЮЗ 9
{12}
н/о н/о +8.4 +6.4 87 +3 +3 1027.6 1025.7
03 25.05 ЮЗ 7
{11}
н/о н/о +8.0 +5.6 85 +4 +4 1027.5 1025.6
05 25.05 Ю 8 н/о н/о +8.2 +5.1 81 +4 +4 1027.6 1025.7
04 25.05 ЮЗ 7
{10}
н/о н/о +8.2 +5.3 82 +4 +4 1027.7 1025.8
06 25.05 Ю 8
{12}
н/о н/о +8.7 +5.6 81 +4 +4 1027.8 1025.9 +7.9
07 25.05 ЮЗ 8 н/о н/о +9.1 +5.8 80 +5 +5 1027.8 1025.9
08 25.05 ЮЗ 8 н/о н/о +9.6 +6.1 79 +5 +5 1027.9 1026.0
09 25.05 ЮЗ 7 н/о н/о +10.0 +6.9 81 +6 +6 1028.1 1026.2
11 25.05 ЮЗ 7
{9}
н/о н/о +10.3 +7.0 80 +7 +7 1028.5 1026.6
10 25.05 ЮЗ 7 н/о н/о +10.6 +7.3 80 +7 +7 1028.5 1026.6
12 25.05 ЮЗ 9
{12}
н/о н/о +9.6 +7.2 85 +5 +5 1029.4 1027.5
13 25.05 З 9
{11}
н/о н/о +9.4 +7.0 85 +5 +5 1030.2 1028.3
14 25.05 ЮЗ 6
{11}
н/о н/о +9.7 +7.3 85 +6 +6 1030.5 1028.6

 

Местоположение метеостанции Sklinna Fyr (Норвегия): широта 65.20 долгота 11.00 высота над уровнем моря 23 м.

В архиве по умолчанию представлена погода в Sklinna Fyr за последнюю неделю. Архивные данные за месяц целиком и за предыдущие месяцы, начиная с января 2011 года, Вы можете получить, выбрав интересующий диапазон дат из раскрывающегося списка и нажав кнопку "Ввод!".


*Определитесь, кто Вы:
робот инопланетянин человек

Внимание! Время в таблицах - всемирное. Для получения местного времени необходимо прибавить поправку, которая в Sklinna Fyr равна 1 ч.

Смотрите также архив погоды в соседних городах и на ближайших метеорологических станциях:

Погода в Rorvik Lufthavn (Норвегия) (42 км)
Погода в S?mna-Kval?yfjellet (Норвегия) (46 км)
Погода в Nordoyan Fyr (Норвегия) (49 км)
Погода в Bronnoysund Lufthavn (Норвегия) (64 км)
Погода в Vega-Vallsjo (Норвегия) (68 км)
Погода в Namsos Lufthavn (Норвегия) (86 км)
Погода в Buholmrasa Fyr (Норвегия) (93 км)
Погода в Tjotta (Норвегия) (96 км)
Погода в Gartland (Норвегия) (99 км)
Погода в Namsskogan (Норвегия) (101 км)

Пояснения к столбцам:

Ветер - указаны скорость ветра в м/с - средняя за 10 мин, порывы в срок и между сроками (в фигурных скобках) и направление, откуда дует ветер: С - северный, СВ - северо-восточный, В - восточный, ЮВ - юго-восточный, Ю - южный, ЮЗ - юго-западный, З - западный, СЗ - северо-западный.
Видимость - горизонтальная дальность видимости в метрах или километрах. При видимости от 1 до 10 км при отсутствии осадков обычно наблюдается дымка, при ухудшении видимости до 1 км и менее - туман. В сухую погоду видимость может ухудшаться дымом, пылью или мглою.
Явления - указаны атмосферные явления, наблюдавшиеся в срок или в последний час перед сроком; фигурными скобками обозначены явления, наблюдавшиеся между сроками (за 1-3 часа до срока); квадратными скобками обозначены град или гололедные отложения с указанием их диаметра в мм.
Облачность - указаны через наклонную черту общая и нижняя облачность в баллах и высота нижней границы облаков в метрах; квадратными скобками обозначены формы облаков: Ci - перистые, Cs - перисто-слоистые, Cc - перисто-кучевые, Ac - высококучевые, As - высокослоистые, Sc - слоисто-кучевые, Ns - слоисто-дождевые, Cu - кучевые, Cb - кучево-дождевые. Подробнее классификацию облаков см. в Атласе облаков (PDF).
T - Температура воздуха - температура, измеренная на высоте 2 м над землей.
Td - Температура точки росы - температура, при понижении до которой содержащийся в воздухе водяной пар достигнет насыщения.
f - Относительная влажность воздуха - влажноcть воздуха, измеренная на высоте 2 м над землей.
Te - Эффективная температура - температура, которую ощущает одетый по сезону человек в тени. Характеристика душности погоды. При расчете учитывается влияние влажности воздуха и скорости ветра на теплоощущения человека.
Tes - Эффективная температура на солнце - температура, которую ощущает человек, с поправкой на солнечный нагрев. Характеристика знойности погоды. Зависит от высоты солнца над горизонтом, облачности и скорости ветра. Ночью, в пасмурную погоду, а также при ветре 12 м/с и более поправка равна нулю.
P - Атмосферное давление - приведенное к уровню моря атмосферное давление.
Po - Атмосферное давление - измеренное на уровне метеостанции атмосферное давление.
Tmin - Минимальная температура - минимум температуры воздуха на высоте 2 м над землей.
Tmax - Максимальная температура - максимум температуры воздуха на высоте 2 м над землей.
R - Количество осадков - Количество выпавших осадков за период времени, мм. При наведении курсора мыши на число - период времени, за который выпало указанное количество осадков.
R24 - Количество осадков - Количество выпавших осадков за 24 часа, мм.
S - Снежный покров - Высота снежного покрова, см. При наведении курсора мыши на число - состояние снежного покрова и степень покрытия местности в баллах.